• MPC Preparation (Info)

  • MPEC 2015-H02 : 2007 FN51

    The following Minor Planet Electronic Circular may be linked-to from your own Web pages, but must not otherwise be redistributed electronically.

    A form allowing access to any MPEC is at the bottom of this page.


    Read MPEC 2015-H01 Read MPEC 2015-H03


    M.P.E.C. 2015-H02                                Issued 2015 Apr. 16, 03:11 UT
    
         The Minor Planet Electronic Circulars contain information on unusual
             minor planets and routine data on comets.  They are published
       on behalf of Commission 20 of the International Astronomical Union by the
              Minor Planet Center, Smithsonian Astrophysical Observatory,
                              Cambridge, MA 02138, U.S.A.
    
                 Prepared using the Tamkin Foundation Computer Network
    
                                  MPC@CFA.HARVARD.EDU
                URL https://www.minorplanetcenter.net/    ISSN 1523-6714
    
                                       2007 FN51
    
    Observations:
         K07F51N*@C2007 03 21.37722 11 27 18.62 +26 19 56.2          23.2 rcEH002568
         K07F51N @C2007 03 21.41870 11 27 18.41 +26 19 57.5          23.3 rcEH002568
         K07F51N @C2007 03 21.45990 11 27 18.22 +26 19 58.1          23.1 rcEH002568
         K07F51N @C2007 04 14.40827 11 25 27.25 +26 25 53.7                cEH002568
         K07F51N @C2007 04 14.42164 11 25 27.20 +26 25 53.8                cEH002568
         K07F51N @C2007 04 14.43480 11 25 27.13 +26 25 54.0                cEH002568
         K07F51N 8C2007 05 15.19930 11 23 58.22 +26 22 00.3                cEH002675
         K07F51N 8C2007 05 15.20346 11 23 58.22 +26 22 00.2                cEH002675
         K07F51N 8C2007 05 15.25541 11 23 58.13 +26 21 59.0                cEH002675
         K07F51N 8C2007 05 15.25954 11 23 58.14 +26 21 59.0                cEH002675
         K07F51N @C2008 03 04.55396 11 36 15.37 +25 46 25.0          23.3 rcEH002568
         K07F51N @C2008 03 04.56993 11 36 15.28 +25 46 25.6          23.1 rcEH002568
         K07F51N @C2008 03 04.58588 11 36 15.21 +25 46 26.1          23.2 rcEH002568
         K07F51N @C2008 04 04.36131 11 33 43.03 +25 59 25.6          23.3 rcEH002568
         K07F51N @C2008 04 05.29858 11 33 38.76 +25 59 38.3          23.4 rcEH002568
         K07F51N 9C2008 05 03.24989 11 31 54.37 +26 00 24.6                oEH002695
         K07F51N 9C2008 05 04.24630 11 31 51.67 +26 00 14.2                oEH002695
         K07F51N 8C2008 12 06.47173 11 46 23.19 +24 22 03.5          23.2 RcEH002675
         K07F51N 8C2008 12 06.54687 11 46 23.36 +24 22 05.1          23.1 RcEH002675
         K07F51N 8C2008 12 06.55007 11 46 23.36 +24 22 05.2          23.0 RcEH002675
         K07F51N 9C2008 12 21.43484 11 46 46.47 +24 29 12.9                oEH002695
         K07F51N 9C2008 12 21.52017 11 46 46.53 +24 29 15.8                oEH002695
         K07F51N 9C2008 12 22.47936 11 46 47.21 +24 29 48.2                oEH002695
         K07F51N @C2009 01 26.48170 11 46 07.36 +24 53 43.6          23.3 rcEH002568
         K07F51N @C2009 01 26.49852 11 46 07.31 +24 53 44.3          23.5 rcEH002568
         K07F51N @C2009 01 26.51531 11 46 07.25 +24 53 45.0          23.3 rcEH002568
         K07F51N @C2009 01 26.51726 11 46 07.26 +24 53 45.1          23.2 rcEH002568
         K07F51N @C2009 01 27.40711 11 46 04.72 +24 54 24.9          24.0 rcEH002568
         K07F51N @C2009 01 27.42261 11 46 04.71 +24 54 25.6          24.1 rcEH002568
         K07F51N @C2009 01 27.42455 11 46 04.68 +24 54 25.7          23.9 rcEH002568
         K07F51N @C2009 11 16.61374 11 52 07.63 +23 50 44.7                cEH002568
         K07F51N @C2009 11 18.61862 11 52 16.07 +23 51 00.6                cEH002568
         K07F51N 8C2010 03 19.15587 11 49 35.43 +25 00 37.0                cEH002675
         K07F51N 8C2010 03 19.18862 11 49 35.27 +25 00 37.7                cEH002675
         K07F51N 8C2010 03 20.14954 11 49 30.53 +25 01 04.3                cEH002675
         K07F51N 8C2010 03 20.17975 11 49 30.39 +25 01 05.4                cEH002675
         K07F51N @C2013 02 06.65667 12 12 33.46 +23 10 20.0          23.3 RLEH002568
         K07F51N @C2013 03 04.48664 12 10 55.06 +23 28 07.9          23.5 RLEH002568
         K07F51N @C2013 03 19.49828 12 09 45.57 +23 36 35.5          23.3 RLEH002568
         K07F51N @C2013 04 03.45857 12 08 34.89 +23 42 46.2          23.0 RLEH002568
         K07F51N @C2013 04 04.56992 12 08 29.75 +23 43 07.4          23.7 RLEH002568
    
    Observer details:
    568 Mauna Kea.  Observers A. Draginda, T. Burdullis, M. Laychak, S. Arnouts,
        J. Kavelaars.  Measurers J. Kavelaars, R. E. Pike.  3.5-m
        Canada-France-Hawaii Telescope + CCD.
    675 Palomar Mountain.  Observers P. Nicholson, B. Gladman, C. Leung,
        R. Jacobson, M. Brozovic, S. Greenstreet.  Measurer B. Gladman.  5.0-m
        Hale reflector + CCD.
    695 Kitt Peak.  Observers J. Wm. Parker, B. Gladman, A. Bieryla.  Measurers
        J. Wm. Parker, B. Gladman.  3.5-m WIYN reflector + CCD.
    
    Orbital elements:
    2007 FN51
    Epoch 2015 June 27.0 TT = JDT 2457200.5                 MPC
    M  13.91370              (2000.0)            P               Q
    n   0.00117404     Peri.   10.50854     -0.37194543     -0.84443953
    a  88.9913766      Node   102.22179     +0.82048355     -0.49328085
    e   0.6243210      Incl.   23.22841     +0.43412364     +0.20879628
    P 840              H    7.5           G   0.15           U   1
    Residuals in seconds of arc
    070321 568  0.2-  0.1+    080405 568  0.3-  0.2+    090127 568  0.3+  0.5-
    070321 568  0.1-  0.4+    080503 695  0.1-  0.5+    090127 568  0.0   0.5-
    070321 568  0.1+  0.0     080504 695  0.3-  0.3+    091116 568  0.7+  0.2+
    070414 568  0.1-  0.2+    081206 675  0.0   0.3+    091118 568  0.0   0.2+
    070414 568  0.0   0.2+    081206 675  0.0   0.1+    100319 675  0.1-  0.3+
    070414 568  0.2-  0.3+    081206 675  0.1-  0.1+    100319 675  0.0   0.0
    070515 675  0.1+  0.2-    081221 695  0.1-  0.0     100320 675  0.0   0.1-
    070515 675  0.2+  0.2-    081221 695  0.0   0.1+    100320 675  0.2+  0.1+
    070515 675  0.1+  0.4-    081222 695  0.1-  0.2+    130206 568  0.1-  0.2-
    070515 675  0.4+  0.3-    090126 568  0.1-  0.0     130304 568  0.1-  0.1-
    080304 568  0.3+  0.3-    090126 568  0.1-  0.1-    130319 568  0.1-  0.2+
    080304 568  0.2+  0.3-    090126 568  0.2-  0.1-    130403 568  0.0   0.1+
    080304 568  0.3+  0.3-    090126 568  0.0   0.1-    130404 568  0.2+  0.0
    080404 568  0.4-  0.2+    090127 568  0.2-  0.5-
    
    Ephemeris:
    2007 FN51                a,e,i = 88.99, 0.62, 23                 q = 33.432
    Date    TT    R. A. (2000) Decl.     Delta      r     Elong.  Phase     V
    2015 03 17    12 22 31.1 +22 36 48  41.7843 42.7026   157.1     0.5    23.9
    ...
    2015 04 01    12 21 21.8 +22 43 46  41.8324 42.7223   152.7     0.6    23.9
    ...
    2015 04 09    12 20 45.3 +22 46 28  41.8829 42.7328   147.7     0.7    23.9
    ...
    2015 04 15    12 20 18.8 +22 48 00  41.9314 42.7407   143.4     0.8    23.9
    2015 04 16    12 20 14.5 +22 48 12  41.9403 42.7420   142.6     0.8    23.9
    2015 04 17    12 20 10.2 +22 48 24  41.9495 42.7433   141.9     0.8    23.9
    ...
    2015 04 23    12 19 45.4 +22 49 19  42.0094 42.7512   137.1     0.9    23.9
    ...
    2015 05 01    12 19 14.8 +22 49 48  42.1014 42.7617   130.4     1.0    23.9
    ...
    2015 05 16    12 18 27.8 +22 48 27  42.3052 42.7815   117.5     1.2    24.0
    
    A. U. Tomatic                (C) Copyright 2015 MPC           M.P.E.C. 2015-H02
    

    Read MPEC 2015-H01 Read MPEC 2015-H03


    MPEC number:

    Enter an MPEC number in one of the following forms:

    • 1997-B01 (the full form)
    • J97B01 (the packed version of the full form)
    • B01 (the abbreviated form)